,,Stat5,,Stat1,,Stat2,,Stat3,,Stat4,,Wind1,,Wind1,
time,status,PA1M_AVG,status,PR1M_SUM,status,RH1M_AVG,status,SR1M_AVG,status,TA1M_AVG,status,W1dAve1m,status,W1sAve1m,
2000-10-06, 00:00:00,VALID,918.818,VALID,0,VALID,93.3345,VALID,-0.101885,VALID,18.8771,VALID,171,VALID,0,
2000-10-06, 00:01:00,VALID,918.811,VALID,0,VALID,93.2671,VALID,-0.0679233,VALID,18.8515,VALID,171,VALID,0,
2000-10-06, 00:02:00,VALID,918.8,VALID,0,VALID,93.674,VALID,-0.101885,VALID,18.8162,VALID,171,VALID,0,
2000-10-06, 00:03:01,VALID,918.785,VALID,0,VALID,93.8533,VALID,-0.0849042,VALID,18.7936,VALID,171,VALID,0,
2000-10-06, 00:04:01,VALID,918.77,VALID,0,VALID,93.4947,VALID,-0.0849042,VALID,18.7708,VALID,171,VALID,0,
2000-10-06, 00:05:00,VALID,918.775,VALID,0,VALID,93.6677,VALID,-0.101885,VALID,18.7579,VALID,171,VALID,0.131579,
2000-10-06, 00:06:01,VALID,918.76,VALID,0,VALID,93.9423,VALID,-0.0849042,VALID,18.7382,VALID,171,VALID,0,
2000-10-06, 00:07:00,VALID,918.765,VALID,0,VALID,93.407,VALID,-0.0849042,VALID,18.7119,VALID,171,VALID,0.0764803,
2000-10-06, 00:08:01,VALID,918.76,VALID,0,VALID,92.5296,VALID,-0.0849042,VALID,18.7193,VALID,167,VALID,0.540064,
2000-10-06, 00:09:00,VALID,918.751,VALID,0,VALID,93.084,VALID,-0.101885,VALID,18.7514,VALID,163,VALID,0.483141,
2000-10-06, 00:10:01,VALID,918.744,VALID,0,VALID,92.274,VALID,-0.0679233,VALID,18.7772,VALID,158,VALID,0.511819,
2000-10-06, 00:11:00,VALID,918.735,VALID,0,VALID,92.04,VALID,-0.101885,VALID,18.7966,VALID,141,VALID,0.683799,
2000-10-06, 00:12:00,VALID,918.72,VALID,0,VALID,92.9022,VALID,-0.0849042,VALID,18.7805,VALID,132,VALID,0.652043,
2000-10-06, 00:13:00,VALID,918.696,VALID,0,VALID,93.365,VALID,-0.0679233,VALID,18.7189,VALID,132,VALID,0.502673,
2000-10-06, 00:14:01,VALID,918.684,VALID,0,VALID,93.5748,VALID,-0.101885,VALID,18.6577,VALID,132,VALID,0.180889,
2000-10-06, 00:15:00,VALID,918.66,VALID,0,VALID,93.7999,VALID,-0.0849042,VALID,18.6354,VALID,132,VALID,0,
2000-10-06, 00:16:01,VALID,918.643,VALID,0,VALID,92.7635,VALID,0.0169808,VALID,18.5915,VALID,96,VALID,0.10597,
2000-10-06, 00:17:00,VALID,918.622,VALID,0,VALID,88.5253,VALID,0,VALID,18.621,VALID,8,VALID,0,
2000-10-06, 00:18:01,VALID,918.608,VALID,0,VALID,87.5945,VALID,0.0339617,VALID,18.6891,VALID,8,VALID,0,
2000-10-06, 00:19:00,VALID,918.592,VALID,0,VALID,90.5815,VALID,0.0339617,VALID,18.7435,VALID,58,VALID,0,
2000-10-06, 00:20:01,VALID,918.578,VALID,0,VALID,92.2664,VALID,-0.0169808,VALID,18.7828,VALID,101,VALID,0,
2000-10-06, 00:21:00,VALID,918.559,VALID,0,VALID,92.2689,VALID,0,VALID,18.7927,VALID,101,VALID,0,
2000-10-06, 00:22:01,VALID,918.529,VALID,0,VALID,92.0311,VALID,0,VALID,18.7694,VALID,101,VALID,0,
2000-10-06, 00:23:00,VALID,918.499,VALID,0,VALID,92.3363,VALID,0,VALID,18.7567,VALID,101,VALID,0,
2000-10-06, 00:24:00,VALID,918.481,VALID,0,VALID,92.2244,VALID,-0.0169808,VALID,18.7308,VALID,101,VALID,0,
2000-10-06, 00:25:00,VALID,918.483,VALID,0,VALID,90.3895,VALID,0,VALID,18.6889,VALID,101,VALID,0,
2000-10-06, 00:26:01,VALID,918.46,VALID,0,VALID,90.9286,VALID,0,VALID,18.6792,VALID,101,VALID,0,
2000-10-06, 00:27:00,VALID,918.441,VALID,0,VALID,89.9889,VALID,-0.0169808,VALID,18.66,VALID,101,VALID,0,
2000-10-06, 00:28:01,VALID,918.41,VALID,0,VALID,91.3635,VALID,0,VALID,18.6923,VALID,140,VALID,0,
2000-10-06, 00:29:01,VALID,918.4,VALID,0,VALID,91.9434,VALID,-0.0169808,VALID,18.6921,VALID,140,VALID,0,
2000-10-06, 00:30:01,VALID,918.385,VALID,0,VALID,92.8284,VALID,-0.0169808,VALID,18.7182,VALID,172,VALID,0,
2000-10-06, 00:31:00,VALID,918.39,VALID,0,VALID,92.5855,VALID,0.0169808,VALID,18.7117,VALID,177,VALID,0,
2000-10-06, 00:32:01,VALID,918.37,VALID,0,VALID,92.5944,VALID,0,VALID,18.7015,VALID,177,VALID,0,
2000-10-06, 00:33:00,VALID,918.372,VALID,0,VALID,92.0337,VALID,0,VALID,18.6884,VALID,177,VALID,0,
2000-10-06, 00:34:01,VALID,918.358,VALID,0,VALID,92.3821,VALID,-0.0339617,VALID,18.6955,VALID,177,VALID,0,
2000-10-06, 00:35:00,VALID,918.338,VALID,0,VALID,91.8671,VALID,-0.0169808,VALID,18.6729,VALID,177,VALID,0,
2000-10-06, 00:36:01,VALID,918.323,VALID,0,VALID,91.9357,VALID,0.0169808,VALID,18.6436,VALID,177,VALID,0,
2000-10-06, 00:37:01,VALID,918.318,VALID,0,VALID,91.9472,VALID,0,VALID,18.6083,VALID,177,VALID,0,
2000-10-06, 00:38:01,VALID,918.306,VALID,0,VALID,91.2033,VALID,0,VALID,18.5793,VALID,177,VALID,0,
2000-10-06, 00:39:00,VALID,918.279,VALID,0,VALID,91.333,VALID,0,VALID,18.5599,VALID,177,VALID,0,
2000-10-06, 00:40:01,VALID,918.269,VALID,0,VALID,91.9167,VALID,0,VALID,18.5463,VALID,177,VALID,0,
2000-10-06, 00:41:00,VALID,918.254,VALID,0,VALID,91.7272,VALID,0,VALID,18.5599,VALID,177,VALID,0,
2000-10-06, 00:42:01,VALID,918.247,VALID,0,VALID,91.4284,VALID,0,VALID,18.5564,VALID,177,VALID,0,
2000-10-06, 00:43:01,VALID,918.235,VALID,0,VALID,90.9617,VALID,0,VALID,18.5825,VALID,177,VALID,0,
2000-10-06, 00:44:01,VALID,918.218,VALID,0,VALID,90.9235,VALID,0,VALID,18.6083,VALID,177,VALID,0,
2000-10-06, 00:45:01,VALID,918.218,VALID,0,VALID,91.2262,VALID,0,VALID,18.6277,VALID,177,VALID,0,
2000-10-06, 00:46:01,VALID,918.199,VALID,0,VALID,91.5123,VALID,0,VALID,18.6046,VALID,195,VALID,0,
2000-10-06, 00:47:01,VALID,918.183,VALID,0,VALID,92.3846,VALID,0,VALID,18.6083,VALID,204,VALID,0.0540707,
2000-10-06, 00:48:01,VALID,918.173,VALID,0,VALID,92.8399,VALID,0,VALID,18.6049,VALID,210,VALID,0.433694,
2000-10-06, 00:49:01,VALID,918.164,VALID,0,VALID,93.0306,VALID,0,VALID,18.5989,VALID,192,VALID,0.379112,
2000-10-06, 00:50:01,VALID,918.15,VALID,0,VALID,92.6262,VALID,0,VALID,18.5959,VALID,188,VALID,0.625,
2000-10-06, 00:51:01,VALID,918.121,VALID,0,VALID,92.0743,VALID,0,VALID,18.5957,VALID,175,VALID,0.52611,
2000-10-06, 00:52:01,VALID,918.102,VALID,0,VALID,90.3132,VALID,-0.0169808,VALID,18.5788,VALID,174,VALID,0.476963,
2000-10-06, 00:53:01,VALID,918.071,VALID,0,VALID,91.9472,VALID,0.0339617,VALID,18.6471,VALID,172,VALID,0.389803,
2000-10-06, 00:54:01,VALID,918.05,VALID,0,VALID,91.2147,VALID,0,VALID,18.6632,VALID,174,VALID,0.691907,
2000-10-06, 00:55:01,VALID,918.033,VALID,0,VALID,88.9716,VALID,0.0169808,VALID,18.6729,VALID,178,VALID,0.758224,
2000-10-06, 00:56:01,VALID,918.01,VALID,0,VALID,91.0227,VALID,0.0169808,VALID,18.7378,VALID,184,VALID,0.76222,
2000-10-06, 00:57:01,VALID,917.995,VALID,0,VALID,92.2689,VALID,0,VALID,18.7564,VALID,194,VALID,0.562294,
2000-10-06, 00:58:01,VALID,917.98,VALID,0,VALID,92.5041,VALID,0.0169808,VALID,18.7507,VALID,197,VALID,0.554087,
2000-10-06, 00:59:01,VALID,917.968,VALID,0,VALID,91.8696,VALID,0.0169808,VALID,18.7147,VALID,181,VALID,0.448602,
2000-10-06, 01:00:01,VALID,917.964,VALID,0,VALID,92.5308,VALID,0,VALID,18.6955,VALID,182,VALID,0.15004,
2000-10-06, 01:01:01,VALID,917.958,VALID,0,VALID,92.9136,VALID,-0.0679233,VALID,18.6776,VALID,184,VALID,0,
2000-10-06, 01:02:01,VALID,917.96,VALID,0,VALID,92.9543,VALID,-0.0849042,VALID,18.6545,VALID,184,VALID,0,
2000-10-06, 01:03:01,VALID,917.949,VALID,0,VALID,93.0204,VALID,-0.0679233,VALID,18.642,VALID,184,VALID,0,
2000-10-06, 01:04:01,VALID,917.951,VALID,0,VALID,93.3002,VALID,-0.0509425,VALID,18.6028,VALID,184,VALID,0,
2000-10-06, 01:05:01,VALID,917.938,VALID,0,VALID,93.1705,VALID,0,VALID,18.5837,VALID,184,VALID,0,
2000-10-06, 01:06:00,VALID,917.928,VALID,0,VALID,93.4146,VALID,-0.0169808,VALID,18.5767,VALID,184,VALID,0,
2000-10-06, 01:07:00,VALID,917.927,VALID,0,VALID,93.613,VALID,-0.0339617,VALID,18.5576,VALID,184,VALID,0,
2000-10-06, 01:08:00,VALID,917.93,VALID,0,VALID,93.7262,VALID,-0.0849042,VALID,18.5481,VALID,184,VALID,0,
2000-10-06, 01:09:00,VALID,917.92,VALID,0,VALID,93.8851,VALID,-0.0509425,VALID,18.5486,VALID,184,VALID,0,
2000-10-06, 01:10:00,VALID,917.911,VALID,0,VALID,93.9131,VALID,-0.0849042,VALID,18.5546,VALID,184,VALID,0,
2000-10-06, 01:11:00,VALID,917.894,VALID,0,VALID,94.4192,VALID,-0.0679233,VALID,18.5571,VALID,184,VALID,0,
2000-10-06, 01:12:00,VALID,917.87,VALID,0,VALID,94.9761,VALID,-0.0679233,VALID,18.5742,VALID,184,VALID,0,
2000-10-06, 01:13:00,VALID,917.878,VALID,0,VALID,95.2114,VALID,-0.0339617,VALID,18.5643,VALID,193,VALID,0,
2000-10-06, 01:14:00,VALID,917.835,VALID,0,VALID,95.35,VALID,-0.0679233,VALID,18.5389,VALID,202,VALID,0,
2000-10-06, 01:15:00,VALID,917.818,VALID,0,VALID,95.1516,VALID,-0.0849042,VALID,18.5262,VALID,210,VALID,0,
2000-10-06, 01:16:00,VALID,917.8,VALID,0,VALID,93.9207,VALID,-0.0679233,VALID,18.4838,VALID,214,VALID,0,
2000-10-06, 01:17:00,VALID,917.775,VALID,0,VALID,93.8431,VALID,-0.0679233,VALID,18.4741,VALID,220,VALID,0,
2000-10-06, 01:18:00,VALID,917.742,VALID,0,VALID,94.0402,VALID,-0.0509425,VALID,18.4738,VALID,213,VALID,0,
2000-10-06, 01:19:00,VALID,917.726,VALID,0,VALID,93.955,VALID,-0.0679233,VALID,18.4835,VALID,206,VALID,0,
2000-10-06, 01:20:00,VALID,917.691,VALID,0,VALID,93.5341,VALID,-0.0679233,VALID,18.4833,VALID,207,VALID,0,
2000-10-06, 01:21:00,VALID,917.669,VALID,0,VALID,93.435,VALID,-0.0339617,VALID,18.4935,VALID,196,VALID,0,
2000-10-06, 01:22:00,VALID,917.646,VALID,0,VALID,93.7389,VALID,-0.0339617,VALID,18.49,VALID,196,VALID,0,
2000-10-06, 01:23:00,VALID,917.623,VALID,0,VALID,94.3035,VALID,-0.0849042,VALID,18.4478,VALID,196,VALID,0,
2000-10-06, 01:24:00,VALID,917.61,VALID,0,VALID,94.8337,VALID,-0.0849042,VALID,18.4415,VALID,196,VALID,0,
2000-10-06, 01:25:00,VALID,917.584,VALID,0,VALID,95.1707,VALID,-0.0679233,VALID,18.4286,VALID,195,VALID,0,
2000-10-06, 01:26:00,VALID,917.567,VALID,0,VALID,95.6336,VALID,-0.0849042,VALID,18.4349,VALID,196,VALID,0,
2000-10-06, 01:27:00,VALID,917.544,VALID,0,VALID,95.6844,VALID,-0.0679233,VALID,18.4289,VALID,199,VALID,0,
2000-10-06, 01:28:00,VALID,917.536,VALID,0,VALID,95.6094,VALID,-0.0849042,VALID,18.3966,VALID,202,VALID,0.194511,
2000-10-06, 01:29:00,VALID,917.533,VALID,0,VALID,94.6659,VALID,-0.0849042,VALID,18.364,VALID,201,VALID,0.760691,
2000-10-06, 01:30:00,VALID,917.528,VALID,0,VALID,93.9538,VALID,-0.0509425,VALID,18.3543,VALID,202,VALID,0.792869,
2000-10-06, 01:31:00,VALID,917.525,VALID,0,VALID,93.8953,VALID,-0.0679233,VALID,18.3516,VALID,199,VALID,0.839844,
2000-10-06, 01:32:00,VALID,917.524,VALID,0,VALID,94.3276,VALID,-0.0509425,VALID,18.3513,VALID,200,VALID,0.857772,
2000-10-06, 01:33:00,VALID,917.522,VALID,0,VALID,94.718,VALID,-0.0339617,VALID,18.3382,VALID,199,VALID,0.650699,
2000-10-06, 01:34:00,VALID,917.528,VALID,0,VALID,95.247,VALID,-0.0509425,VALID,18.3417,VALID,200,VALID,0.727764,
2000-10-06, 01:35:00,VALID,917.522,VALID,0,VALID,95.8281,VALID,-0.0679233,VALID,18.3255,VALID,187,VALID,0.971834,
2000-10-06, 01:36:00,VALID,917.524,VALID,0,VALID,96.2528,VALID,-0.0849042,VALID,18.3255,VALID,171,VALID,0.851963,
2000-10-06, 01:37:00,VALID,917.503,VALID,0,VALID,96.5008,VALID,-0.0339617,VALID,18.3158,VALID,176,VALID,0.820724,
2000-10-06, 01:38:00,VALID,917.496,VALID,0,VALID,96.7653,VALID,-0.0679233,VALID,18.3098,VALID,186,VALID,0.927284,
2000-10-06, 01:39:00,VALID,917.463,VALID,0,VALID,96.7958,VALID,-0.0679233,VALID,18.3165,VALID,198,VALID,0.946135,
2000-10-06, 01:40:00,VALID,917.441,VALID,0,VALID,96.6267,VALID,-0.0339617,VALID,18.3031,VALID,186,VALID,0.620192,
2000-10-06, 01:41:00,VALID,917.414,VALID,0,VALID,96.4601,VALID,-0.0509425,VALID,18.3121,VALID,128,VALID,0.132401,
2000-10-06, 01:42:00,VALID,917.399,VALID,0,VALID,96.3914,VALID,-0.0849042,VALID,18.3223,VALID,121,VALID,0,
2000-10-06, 01:43:00,VALID,917.37,VALID,0,VALID,96.221,VALID,-0.0679233,VALID,18.3001,VALID,171,VALID,0.0795641,
2000-10-06, 01:44:00,VALID,917.365,VALID,0,VALID,96.2859,VALID,-0.0679233,VALID,18.3057,VALID,193,VALID,0.55008,
2000-10-06, 01:45:00,VALID,917.334,VALID,0,VALID,96.4296,VALID,-0.0509425,VALID,18.3255,VALID,143,VALID,0.470806,
2000-10-06, 01:46:00,VALID,917.318,VALID,0,VALID,96.2834,VALID,-0.0679233,VALID,18.3225,VALID,128,VALID,0.266627,
2000-10-06, 01:47:00,VALID,917.307,VALID,0,VALID,96.2732,VALID,-0.0849042,VALID,18.3091,VALID,166,VALID,0.476563,
2000-10-06, 01:48:00,VALID,917.287,VALID,0,VALID,96.483,VALID,0.0679233,VALID,18.2981,VALID,171,VALID,0.567107,
2000-10-06, 01:49:00,VALID,917.288,VALID,0,VALID,96.5822,VALID,0.0509425,VALID,18.2854,VALID,187,VALID,0.724095,
2000-10-06, 01:50:00,VALID,917.264,VALID,0,VALID,96.689,VALID,0.0509425,VALID,18.2625,VALID,191,VALID,0.73117,
2000-10-06, 01:51:00,VALID,917.248,VALID,0,VALID,96.7233,VALID,0.0339617,VALID,18.2498,VALID,197,VALID,1.01563,
2000-10-06, 01:52:00,VALID,917.226,VALID,0,VALID,96.6865,VALID,0.0169808,VALID,18.2434,VALID,197,VALID,1.03986,
2000-10-06, 01:53:00,VALID,917.207,VALID,0,VALID,96.3202,VALID,0.0339617,VALID,18.2402,VALID,198,VALID,1.2648,
2000-10-06, 01:54:00,VALID,917.201,VALID,0,VALID,95.8103,VALID,0.0679233,VALID,18.2531,VALID,199,VALID,1.26062,
2000-10-06, 01:55:00,VALID,917.181,VALID,0,VALID,95.3958,VALID,0.0509425,VALID,18.2821,VALID,201,VALID,1.15851,
2000-10-06, 01:56:00,VALID,917.19,VALID,0,VALID,95.3843,VALID,0,VALID,18.3303,VALID,197,VALID,1.19311,
2000-10-06, 01:57:00,VALID,917.168,VALID,0,VALID,95.4238,VALID,0.0169808,VALID,18.3733,VALID,203,VALID,0.884868,
2000-10-06, 01:58:00,VALID,917.188,VALID,0,VALID,95.4568,VALID,0,VALID,18.3954,VALID,205,VALID,0.821514,
2000-10-06, 01:59:00,VALID,917.183,VALID,0,VALID,95.6463,VALID,0.0339617,VALID,18.4182,VALID,209,VALID,0.57648,
2000-10-06, 02:00:00,VALID,917.18,VALID,0,VALID,95.8052,VALID,0,VALID,18.421,VALID,211,VALID,0.497997,
2000-10-06, 02:01:00,VALID,917.178,VALID,0,VALID,96.0392,VALID,0,VALID,18.4307,VALID,212,VALID,0.338199,
2000-10-06, 02:02:00,VALID,917.17,VALID,0,VALID,96.1333,VALID,0.0169808,VALID,18.448,VALID,204,VALID,0.448117,
2000-10-06, 02:03:00,VALID,917.156,VALID,0,VALID,95.8536,VALID,0.0169808,VALID,18.4247,VALID,193,VALID,0.605058,
2000-10-06, 02:04:00,VALID,917.161,VALID,0,VALID,95.706,VALID,0.0339617,VALID,18.415,VALID,183,VALID,0.395032,
2000-10-06, 02:05:00,VALID,917.155,VALID,0,VALID,95.6119,VALID,0,VALID,18.3984,VALID,183,VALID,0.0271382,
2000-10-06, 02:06:00,VALID,917.145,VALID,0,VALID,95.5547,VALID,0.0169808,VALID,18.3926,VALID,184,VALID,0,
2000-10-06, 02:07:00,VALID,917.135,VALID,0,VALID,95.598,VALID,0.0169808,VALID,18.379,VALID,193,VALID,0.0127467,
2000-10-06, 02:08:00,VALID,917.121,VALID,0,VALID,95.6183,VALID,0.0169808,VALID,18.3797,VALID,207,VALID,0.557292,
2000-10-06, 02:09:00,VALID,917.117,VALID,0,VALID,95.5687,VALID,0.0169808,VALID,18.3728,VALID,200,VALID,0.707648,
2000-10-06, 02:10:00,VALID,917.099,VALID,0,VALID,95.6501,VALID,0,VALID,18.3763,VALID,198,VALID,0.73097,
2000-10-06, 02:11:00,VALID,917.107,VALID,0,VALID,95.4276,VALID,0.0169808,VALID,18.3689,VALID,201,VALID,0.744243,
2000-10-06, 02:12:00,VALID,917.091,VALID,0,VALID,94.793,VALID,0,VALID,18.3562,VALID,202,VALID,0.870192,
2000-10-06, 02:13:00,VALID,917.096,VALID,0,VALID,94.4459,VALID,0.0169808,VALID,18.3728,VALID,195,VALID,0.67537,
2000-10-06, 02:14:00,VALID,917.076,VALID,0,VALID,94.9939,VALID,0.0169808,VALID,18.3956,VALID,199,VALID,0.381811,
2000-10-06, 02:15:00,VALID,917.066,VALID,0,VALID,95.1338,VALID,0.0169808,VALID,18.3887,VALID,197,VALID,0.515831,
2000-10-06, 02:16:00,VALID,917.066,VALID,0,VALID,95.1949,VALID,-0.0679233,VALID,18.3806,VALID,194,VALID,0.6252,
2000-10-06, 02:17:00,VALID,917.045,VALID,0,VALID,95.0715,VALID,-0.101885,VALID,18.3548,VALID,188,VALID,0.61287,
2000-10-06, 02:18:00,VALID,917.042,VALID,0,VALID,94.9304,VALID,-0.101885,VALID,18.3523,VALID,195,VALID,0.484375,
2000-10-06, 02:19:00,VALID,917.024,VALID,0,VALID,94.8515,VALID,-0.101885,VALID,18.358,VALID,199,VALID,0.426192,
2000-10-06, 02:20:00,VALID,917.013,VALID,0,VALID,94.4967,VALID,-0.101885,VALID,18.3583,VALID,198,VALID,0.691106,
2000-10-06, 02:21:00,VALID,917.008,VALID,0,VALID,94.3785,VALID,-0.101885,VALID,18.3578,VALID,204,VALID,0.685238,
2000-10-06, 02:22:00,VALID,917.005,VALID,0,VALID,93.4273,VALID,-0.101885,VALID,18.3613,VALID,197,VALID,0.972556,
2000-10-06, 02:23:00,VALID,916.999,VALID,0,VALID,92.8869,VALID,-0.0849042,VALID,18.3975,VALID,198,VALID,0.797903,
2000-10-06, 02:24:00,VALID,916.989,VALID,0,VALID,92.3859,VALID,-0.0679233,VALID,18.4231,VALID,195,VALID,0.842147,
2000-10-06, 02:25:00,VALID,916.987,VALID,0,VALID,92.3452,VALID,-0.101885,VALID,18.4552,VALID,195,VALID,0.3419,
2000-10-06, 02:26:00,VALID,916.978,VALID,0,VALID,93.2073,VALID,-0.101885,VALID,18.4939,VALID,206,VALID,0,
2000-10-06, 02:27:00,VALID,916.959,VALID,0,VALID,93.2875,VALID,-0.0849042,VALID,18.5002,VALID,210,VALID,0.871505,
2000-10-06, 02:28:00,VALID,916.958,VALID,0,VALID,93.2607,VALID,-0.0509425,VALID,18.4905,VALID,218,VALID,0.66246,
2000-10-06, 02:29:00,VALID,916.951,VALID,0,VALID,93.7414,VALID,-0.0339617,VALID,18.5195,VALID,210,VALID,0.435033,
2000-10-06, 02:30:00,VALID,916.951,VALID,0,VALID,93.7834,VALID,-0.0849042,VALID,18.5163,VALID,217,VALID,0.46855,
2000-10-06, 02:31:00,VALID,916.933,VALID,0,VALID,93.8584,VALID,-0.0849042,VALID,18.5034,VALID,210,VALID,0.605674,
2000-10-06, 02:32:00,VALID,916.926,VALID,0,VALID,93.5011,VALID,-0.101885,VALID,18.4745,VALID,208,VALID,0.507612,
2000-10-06, 02:33:00,VALID,916.921,VALID,0,VALID,93.6638,VALID,-0.0849042,VALID,18.4649,VALID,204,VALID,0.538446,
2000-10-06, 02:34:00,VALID,916.932,VALID,0,VALID,94.114,VALID,-0.0849042,VALID,18.442,VALID,224,VALID,0.424679,
2000-10-06, 02:35:00,VALID,916.945,VALID,0,VALID,94.5196,VALID,-0.101885,VALID,18.4289,VALID,222,VALID,0.400082,
2000-10-06, 02:36:00,VALID,916.933,VALID,0,VALID,94.6773,VALID,-0.0849042,VALID,18.4229,VALID,218,VALID,0.379407,
2000-10-06, 02:37:00,VALID,916.937,VALID,0,VALID,94.8108,VALID,-0.101885,VALID,18.3973,VALID,206,VALID,0.47832,
2000-10-06, 02:38:00,VALID,916.933,VALID,0,VALID,94.9126,VALID,-0.101885,VALID,18.3742,VALID,200,VALID,0.579928,
2000-10-06, 02:39:00,VALID,916.936,VALID,0,VALID,95.0791,VALID,-0.0679233,VALID,18.3682,VALID,193,VALID,0.531867,
2000-10-06, 02:40:00,VALID,916.944,VALID,0,VALID,95.1758,VALID,-0.0679233,VALID,18.3486,VALID,185,VALID,0.490585,
2000-10-06, 02:41:00,VALID,916.937,VALID,0,VALID,95.4238,VALID,-0.0509425,VALID,18.3317,VALID,175,VALID,0.466488,
2000-10-06, 02:42:00,VALID,916.94,VALID,0,VALID,95.5331,VALID,-0.0679233,VALID,18.3223,VALID,175,VALID,0.519431,
2000-10-06, 02:43:00,VALID,916.938,VALID,0,VALID,94.6697,VALID,-0.0679233,VALID,18.2999,VALID,189,VALID,0.595189,
2000-10-06, 02:44:00,VALID,916.944,VALID,0,VALID,94.0682,VALID,-0.0849042,VALID,18.281,VALID,192,VALID,0.652444,
2000-10-06, 02:45:00,VALID,916.943,VALID,0,VALID,92.7254,VALID,-0.0679233,VALID,18.2676,VALID,195,VALID,0.789474,
2000-10-06, 02:46:00,VALID,916.95,VALID,0,VALID,91.9586,VALID,0,VALID,18.2664,VALID,201,VALID,0.752604,
2000-10-06, 02:47:00,VALID,916.949,VALID,0,VALID,91.4156,VALID,-0.0169808,VALID,18.2826,VALID,193,VALID,0.919819,
2000-10-06, 02:48:00,VALID,916.938,VALID,0,VALID,91.2008,VALID,0.0169808,VALID,18.2921,VALID,182,VALID,0.971554,
2000-10-06, 02:49:00,VALID,916.927,VALID,0,VALID,92.1278,VALID,0,VALID,18.3112,VALID,173,VALID,0.774877,
2000-10-06, 02:50:00,VALID,916.939,VALID,0,VALID,92.0209,VALID,0.0339617,VALID,18.2916,VALID,189,VALID,0.920873,
2000-10-06, 02:51:00,VALID,916.954,VALID,0,VALID,91.5365,VALID,0.0169808,VALID,18.2791,VALID,192,VALID,0.99301,
2000-10-06, 02:52:00,VALID,916.936,VALID,0,VALID,91.0393,VALID,-0.0169808,VALID,18.2821,VALID,193,VALID,1.08854,
2000-10-06, 02:53:00,VALID,916.931,VALID,0,VALID,91.1423,VALID,0,VALID,18.3052,VALID,189,VALID,1.09313,
2000-10-06, 02:54:00,VALID,916.932,VALID,0,VALID,91.3305,VALID,0,VALID,18.2951,VALID,187,VALID,1.02464,
2000-10-06, 02:55:00,VALID,916.919,VALID,0,VALID,90.9299,VALID,0,VALID,18.2921,VALID,190,VALID,1.01069,
2000-10-06, 02:56:00,VALID,916.906,VALID,0,VALID,91.862,VALID,0.0169808,VALID,18.302,VALID,185,VALID,0.90625,
2000-10-06, 02:57:00,VALID,916.884,VALID,0,VALID,91.6013,VALID,0.0169808,VALID,18.2821,VALID,185,VALID,0.991982,
2000-10-06, 02:58:00,VALID,916.89,VALID,0,VALID,90.6794,VALID,0.0169808,VALID,18.2724,VALID,195,VALID,1.16186,
2000-10-06, 02:59:00,VALID,916.884,VALID,0,VALID,90.6768,VALID,0.0169808,VALID,18.2819,VALID,194,VALID,1.1361,
2000-10-06, 03:00:00,VALID,916.881,VALID,0,VALID,91.0253,VALID,0.0169808,VALID,18.3084,VALID,194,VALID,1.1883,
2000-10-06, 03:01:00,VALID,916.875,VALID,0,VALID,91.3953,VALID,0,VALID,18.3119,VALID,197,VALID,1.1139,
2000-10-06, 03:02:00,VALID,916.883,VALID,0,VALID,91.4665,VALID,0.0169808,VALID,18.311,VALID,190,VALID,1.0014,
2000-10-06, 03:03:00,VALID,916.885,VALID,0,VALID,91.9497,VALID,0.0169808,VALID,18.3114,VALID,192,VALID,0.998561,
2000-10-06, 03:04:00,VALID,916.885,VALID,0,VALID,92.3337,VALID,0,VALID,18.2953,VALID,183,VALID,0.931891,
2000-10-06, 03:05:00,VALID,916.891,VALID,0,VALID,92.6275,VALID,0.0169808,VALID,18.2724,VALID,188,VALID,0.995477,
2000-10-06, 03:06:00,VALID,916.894,VALID,0,VALID,92.6453,VALID,0.0339617,VALID,18.2593,VALID,190,VALID,1.07312,
2000-10-06, 03:07:00,VALID,916.901,VALID,0,VALID,93.1717,VALID,0.0169808,VALID,18.263,VALID,197,VALID,0.968956,
2000-10-06, 03:08:00,VALID,916.898,VALID,0,VALID,93.5151,VALID,0,VALID,18.2533,VALID,199,VALID,0.944712,
2000-10-06, 03:09:00,VALID,916.909,VALID,0,VALID,93.5621,VALID,-0.0169808,VALID,18.2404,VALID,202,VALID,0.798314,
2000-10-06, 03:10:00,VALID,916.903,VALID,0,VALID,93.9665,VALID,0,VALID,18.2307,VALID,199,VALID,0.990385,
2000-10-06, 03:11:00,VALID,916.889,VALID,0,VALID,93.4083,VALID,0,VALID,18.2081,VALID,188,VALID,1.09745,
2000-10-06, 03:12:00,VALID,916.884,VALID,0,VALID,92.7521,VALID,0,VALID,18.2247,VALID,191,VALID,0.974359,
2000-10-06, 03:13:00,VALID,916.881,VALID,0,VALID,93.2518,VALID,0,VALID,18.2468,VALID,202,VALID,0.794819,
2000-10-06, 03:14:00,VALID,916.88,VALID,0,VALID,93.6499,VALID,0,VALID,18.2466,VALID,200,VALID,0.713141,
2000-10-06, 03:15:00,VALID,916.867,VALID,0,VALID,93.1158,VALID,0,VALID,18.224,VALID,197,VALID,0.881579,
2000-10-06, 03:16:00,VALID,916.863,VALID,0,VALID,92.9123,VALID,0,VALID,18.2348,VALID,197,VALID,0.812099,
2000-10-06, 03:17:00,VALID,916.851,VALID,0,VALID,92.1112,VALID,0,VALID,18.2019,VALID,191,VALID,0.819901,
2000-10-06, 03:18:00,VALID,916.856,VALID,0,VALID,91.8658,VALID,0,VALID,18.2016,VALID,188,VALID,0.786659,
2000-10-06, 03:19:00,VALID,916.844,VALID,0,VALID,91.277,VALID,0,VALID,18.215,VALID,188,VALID,0.731702,
2000-10-06, 03:20:00,VALID,916.843,VALID,0,VALID,91.4106,VALID,0,VALID,18.221,VALID,187,VALID,0.580529,
2000-10-06, 03:21:00,VALID,916.819,VALID,0,VALID,91.8836,VALID,0.0169808,VALID,18.2275,VALID,187,VALID,0.445107,
2000-10-06, 03:22:00,VALID,916.814,VALID,0,VALID,91.4309,VALID,-0.0169808,VALID,18.1956,VALID,177,VALID,0.605369,
2000-10-06, 03:23:00,VALID,916.818,VALID,0,VALID,90.2458,VALID,0,VALID,18.1569,VALID,173,VALID,0.758429,
2000-10-06, 03:24:00,VALID,916.811,VALID,0,VALID,90.5815,VALID,0,VALID,18.1467,VALID,171,VALID,0.68149,
2000-10-06, 03:25:00,VALID,916.803,VALID,0,VALID,89.8478,VALID,0.0169808,VALID,18.1211,VALID,171,VALID,0.530839,
2000-10-06, 03:26:00,VALID,916.807,VALID,0,VALID,89.8859,VALID,0,VALID,18.1052,VALID,171,VALID,0.433494,
2000-10-06, 03:27:00,VALID,916.812,VALID,0,VALID,90.9452,VALID,-0.0169808,VALID,18.1054,VALID,171,VALID,0.156044,
2000-10-06, 03:28:00,VALID,916.822,VALID,0,VALID,91.6115,VALID,0.0169808,VALID,18.0794,VALID,171,VALID,0,
2000-10-06, 03:29:00,VALID,916.824,VALID,0,VALID,92.424,VALID,0,VALID,18.0443,VALID,171,VALID,0,
2000-10-06, 03:30:00,VALID,916.829,VALID,0,VALID,93.3053,VALID,-0.0509425,VALID,17.9993,VALID,171,VALID,0,
2000-10-06, 03:31:00,VALID,916.84,VALID,0,VALID,93.702,VALID,0,VALID,17.9571,VALID,171,VALID,0,
2000-10-06, 03:32:00,VALID,916.844,VALID,0,VALID,93.6613,VALID,-0.0169808,VALID,17.9119,VALID,171,VALID,0,
2000-10-06, 03:33:00,VALID,916.847,VALID,0,VALID,93.4718,VALID,0,VALID,17.8925,VALID,171,VALID,0,
2000-10-06, 03:34:00,VALID,916.841,VALID,0,VALID,93.5291,VALID,0.0169808,VALID,17.8695,VALID,171,VALID,0,
2000-10-06, 03:35:00,VALID,916.839,VALID,0,VALID,93.8317,VALID,0.0169808,VALID,17.8595,VALID,169,VALID,0,
2000-10-06, 03:36:00,VALID,916.841,VALID,0,VALID,94.1318,VALID,0.0169808,VALID,17.8436,VALID,168,VALID,0,
2000-10-06, 03:37:00,VALID,916.853,VALID,0,VALID,94.2806,VALID,0,VALID,17.8116,VALID,168,VALID,0,